Location: Newark
(31.5350°N, 35.0986°E)
Time: 01:03:13
(UTC+00:00)

SR - Pass Details

Date: 27 October 2019
Orbit: 574 x 882 km, 66.7° (Epoch: 18 November)

Event Time Altitude Azimuth Distance (km) Brightness Sun altitude
Rises 04:48:02 0° 313° (NW) 3,482 ? 10.7°
Reaches altitude 10° 04:51:26 10° 295° (WNW) 2,531 ? 11.3°
Maximum altitude 04:55:03 17° 257° (WSW) 2,053 ? 12.0°
Drops below altitude 10° 04:58:35 10° 218° (SW) 2,463 ? 12.7°
Sets 05:01:51 0° 199° (SSW) 3,347 ? 13.4°
